#datetime,building,power
2023-10-20T00:00:00,sdl,5.57
2023-10-20T00:01:00,sdl,5.56
2023-10-20T00:02:00,sdl,5.54
2023-10-20T00:03:00,sdl,4.83
2023-10-20T00:04:00,sdl,4.89
2023-10-20T00:05:00,sdl,4.90
2023-10-20T00:06:00,sdl,4.90
2023-10-20T00:07:00,sdl,5.08
2023-10-20T00:08:00,sdl,4.97
2023-10-20T00:09:00,sdl,4.97
2023-10-20T00:10:00,sdl,3.62
2023-10-20T00:11:00,sdl,3.92
2023-10-20T00:12:00,sdl,3.50
2023-10-20T00:13:00,sdl,3.57
2023-10-20T00:14:00,sdl,3.70
2023-10-20T00:15:00,sdl,3.52
2023-10-20T00:16:00,sdl,4.06
2023-10-20T00:17:00,sdl,3.85
2023-10-20T00:18:00,sdl,3.48
2023-10-20T00:19:00,sdl,2.39
2023-10-20T00:20:00,sdl,2.40
2023-10-20T00:21:00,sdl,2.21
2023-10-20T00:22:00,sdl,2.05
2023-10-20T00:23:00,sdl,2.37
2023-10-20T00:24:00,sdl,2.05
2023-10-20T00:25:00,sdl,2.76
2023-10-20T00:26:00,sdl,2.28
2023-10-20T00:27:00,sdl,2.11
2023-10-20T00:28:00,sdl,2.14
2023-10-20T00:29:00,sdl,2.04
2023-10-20T00:30:00,sdl,3.70
2023-10-20T00:31:00,sdl,4.05
2023-10-20T00:32:00,sdl,4.36
2023-10-20T00:33:00,sdl,4.61
2023-10-20T00:34:00,sdl,4.64
2023-10-20T00:35:00,sdl,4.66
2023-10-20T00:36:00,sdl,5.40
2023-10-20T00:37:00,sdl,5.25
2023-10-20T00:38:00,sdl,4.61
2023-10-20T00:39:00,sdl,2.37
2023-10-20T00:40:00,sdl,2.38
2023-10-20T00:41:00,sdl,2.34
2023-10-20T00:42:00,sdl,2.37
2023-10-20T00:43:00,sdl,2.36
2023-10-20T00:44:00,sdl,2.36
2023-10-20T00:45:00,sdl,4.97
2023-10-20T00:46:00,sdl,4.96
2023-10-20T00:47:00,sdl,4.70
2023-10-20T00:48:00,sdl,4.71
2023-10-20T00:49:00,sdl,5.88
2023-10-20T00:50:00,sdl,5.94
2023-10-20T00:51:00,sdl,6.86
2023-10-20T00:52:00,sdl,6.69
2023-10-20T00:53:00,sdl,5.73
2023-10-20T00:54:00,sdl,5.67
2023-10-20T00:55:00,sdl,5.68
2023-10-20T00:56:00,sdl,5.67
2023-10-20T00:57:00,sdl,4.65
2023-10-20T00:58:00,sdl,4.67
2023-10-20T00:59:00,sdl,2.40
2023-10-20T01:00:00,sdl,2.44
2023-10-20T01:01:00,sdl,2.30
2023-10-20T01:02:00,sdl,2.44
2023-10-20T01:03:00,sdl,2.40
2023-10-20T01:04:00,sdl,2.38
2023-10-20T01:05:00,sdl,2.41
2023-10-20T01:06:00,sdl,2.37
2023-10-20T01:07:00,sdl,2.44
2023-10-20T01:08:00,sdl,2.72
2023-10-20T01:09:00,sdl,3.30
2023-10-20T01:10:00,sdl,3.25
2023-10-20T01:11:00,sdl,3.84
2023-10-20T01:12:00,sdl,3.52
2023-10-20T01:13:00,sdl,3.57
2023-10-20T01:14:00,sdl,3.58
2023-10-20T01:15:00,sdl,3.77
2023-10-20T01:16:00,sdl,5.73
2023-10-20T01:17:00,sdl,5.20
2023-10-20T01:18:00,sdl,5.19
2023-10-20T01:19:00,sdl,5.23
2023-10-20T01:20:00,sdl,4.99
2023-10-20T01:21:00,sdl,4.89
2023-10-20T01:22:00,sdl,4.96
2023-10-20T01:23:00,sdl,4.94
2023-10-20T01:24:00,sdl,4.88
2023-10-20T01:25:00,sdl,4.95
2023-10-20T01:26:00,sdl,2.67
2023-10-20T01:27:00,sdl,2.75
2023-10-20T01:28:00,sdl,3.54
2023-10-20T01:29:00,sdl,3.81
2023-10-20T01:30:00,sdl,4.44
2023-10-20T01:31:00,sdl,5.09
2023-10-20T01:32:00,sdl,4.47
2023-10-20T01:33:00,sdl,4.58
2023-10-20T01:34:00,sdl,4.57
2023-10-20T01:35:00,sdl,4.53
2023-10-20T01:36:00,sdl,3.53
2023-10-20T01:37:00,sdl,2.36
2023-10-20T01:38:00,sdl,2.44
2023-10-20T01:39:00,sdl,2.71
2023-10-20T01:40:00,sdl,2.27
2023-10-20T01:41:00,sdl,2.29
2023-10-20T01:42:00,sdl,2.21
2023-10-20T01:43:00,sdl,2.10
2023-10-20T01:44:00,sdl,2.05
2023-10-20T01:45:00,sdl,2.05
2023-10-20T01:46:00,sdl,2.04
2023-10-20T01:47:00,sdl,3.52
2023-10-20T01:48:00,sdl,4.26
2023-10-20T01:49:00,sdl,4.20
2023-10-20T01:50:00,sdl,3.14
2023-10-20T01:51:00,sdl,3.49
2023-10-20T01:52:00,sdl,5.67
2023-10-20T01:53:00,sdl,5.86
2023-10-20T01:54:00,sdl,4.95
2023-10-20T01:55:00,sdl,4.31
2023-10-20T01:56:00,sdl,4.43
2023-10-20T01:57:00,sdl,4.39
2023-10-20T01:58:00,sdl,4.41
2023-10-20T01:59:00,sdl,4.21
2023-10-20T02:00:00,sdl,4.28
2023-10-20T02:01:00,sdl,5.55
2023-10-20T02:02:00,sdl,5.56
2023-10-20T02:03:00,sdl,5.79
2023-10-20T02:04:00,sdl,5.73
2023-10-20T02:05:00,sdl,6.57
2023-10-20T02:06:00,sdl,6.54
2023-10-20T02:07:00,sdl,6.59
2023-10-20T02:08:00,sdl,4.42
2023-10-20T02:09:00,sdl,4.53
2023-10-20T02:10:00,sdl,4.51
2023-10-20T02:11:00,sdl,4.54
2023-10-20T02:12:00,sdl,4.52
2023-10-20T02:13:00,sdl,3.63
2023-10-20T02:14:00,sdl,3.52
2023-10-20T02:15:00,sdl,3.90
2023-10-20T02:16:00,sdl,3.58
2023-10-20T02:17:00,sdl,3.38
2023-10-20T02:18:00,sdl,3.51
2023-10-20T02:19:00,sdl,3.48
2023-10-20T02:20:00,sdl,4.63
2023-10-20T02:21:00,sdl,3.43
2023-10-20T02:22:00,sdl,3.76
2023-10-20T02:23:00,sdl,3.32
2023-10-20T02:24:00,sdl,4.59
2023-10-20T02:25:00,sdl,4.58
2023-10-20T02:26:00,sdl,5.29
2023-10-20T02:27:00,sdl,5.29
2023-10-20T02:28:00,sdl,5.53
2023-10-20T02:29:00,sdl,5.70
2023-10-20T02:30:00,sdl,5.77
2023-10-20T02:31:00,sdl,5.48
2023-10-20T02:32:00,sdl,4.59
2023-10-20T02:33:00,sdl,3.64
2023-10-20T02:34:00,sdl,6.00
2023-10-20T02:35:00,sdl,5.85
2023-10-20T02:36:00,sdl,5.83
2023-10-20T02:37:00,sdl,5.85
2023-10-20T02:38:00,sdl,5.84
2023-10-20T02:39:00,sdl,5.77
2023-10-20T02:40:00,sdl,5.86
2023-10-20T02:41:00,sdl,5.69
2023-10-20T02:42:00,sdl,5.70
2023-10-20T02:43:00,sdl,4.47
2023-10-20T02:44:00,sdl,4.64
2023-10-20T02:45:00,sdl,4.97
2023-10-20T02:46:00,sdl,5.41
2023-10-20T02:47:00,sdl,4.62
2023-10-20T02:48:00,sdl,4.63
2023-10-20T02:49:00,sdl,4.61
2023-10-20T02:50:00,sdl,4.70
2023-10-20T02:51:00,sdl,4.70
2023-10-20T02:52:00,sdl,3.76
2023-10-20T02:53:00,sdl,3.64
2023-10-20T02:54:00,sdl,3.60
2023-10-20T02:55:00,sdl,3.46
2023-10-20T02:56:00,sdl,3.43
2023-10-20T02:57:00,sdl,3.41
2023-10-20T02:58:00,sdl,4.69
2023-10-20T02:59:00,sdl,3.91
2023-10-20T03:00:00,sdl,3.47
2023-10-20T03:01:00,sdl,3.95
2023-10-20T03:02:00,sdl,4.24
2023-10-20T03:03:00,sdl,4.51
2023-10-20T03:04:00,sdl,6.80
2023-10-20T03:05:00,sdl,6.43
2023-10-20T03:06:00,sdl,6.39
2023-10-20T03:07:00,sdl,6.47
2023-10-20T03:08:00,sdl,6.46
2023-10-20T03:09:00,sdl,6.36
2023-10-20T03:10:00,sdl,5.63
2023-10-20T03:11:00,sdl,5.51
2023-10-20T03:12:00,sdl,5.55
2023-10-20T03:13:00,sdl,5.94
2023-10-20T03:14:00,sdl,5.94
2023-10-20T03:15:00,sdl,5.91
2023-10-20T03:16:00,sdl,5.91
2023-10-20T03:17:00,sdl,6.19
2023-10-20T03:18:00,sdl,6.01
2023-10-20T03:19:00,sdl,6.05
2023-10-20T03:20:00,sdl,5.99
2023-10-20T03:21:00,sdl,4.17
2023-10-20T03:22:00,sdl,4.56
2023-10-20T03:23:00,sdl,4.73
2023-10-20T03:24:00,sdl,5.37
2023-10-20T03:25:00,sdl,5.53
2023-10-20T03:26:00,sdl,6.19
2023-10-20T03:27:00,sdl,5.57
2023-10-20T03:28:00,sdl,5.64
2023-10-20T03:29:00,sdl,5.33
2023-10-20T03:30:00,sdl,3.46
2023-10-20T03:31:00,sdl,3.75
2023-10-20T03:32:00,sdl,3.38
2023-10-20T03:33:00,sdl,3.35
2023-10-20T03:34:00,sdl,3.34
2023-10-20T03:35:00,sdl,3.36
2023-10-20T03:36:00,sdl,3.35
2023-10-20T03:37:00,sdl,3.30
2023-10-20T03:38:00,sdl,3.40
2023-10-20T03:39:00,sdl,3.31
2023-10-20T03:40:00,sdl,4.46
2023-10-20T03:41:00,sdl,4.63
2023-10-20T03:42:00,sdl,5.50
2023-10-20T03:43:00,sdl,5.19
2023-10-20T03:44:00,sdl,4.32
2023-10-20T03:45:00,sdl,4.37
2023-10-20T03:46:00,sdl,4.36
2023-10-20T03:47:00,sdl,4.44
2023-10-20T03:48:00,sdl,3.69
2023-10-20T03:49:00,sdl,3.46
2023-10-20T03:50:00,sdl,3.42
2023-10-20T03:51:00,sdl,3.37
2023-10-20T03:52:00,sdl,3.40
2023-10-20T03:53:00,sdl,3.48
2023-10-20T03:54:00,sdl,3.58
2023-10-20T03:55:00,sdl,3.42
2023-10-20T03:56:00,sdl,3.35
2023-10-20T03:57:00,sdl,3.37
2023-10-20T03:58:00,sdl,3.37
2023-10-20T03:59:00,sdl,4.43
2023-10-20T04:00:00,sdl,4.52
2023-10-20T04:01:00,sdl,4.71
2023-10-20T04:02:00,sdl,7.05
2023-10-20T04:03:00,sdl,7.15
2023-10-20T04:04:00,sdl,6.77
2023-10-20T04:05:00,sdl,6.73
2023-10-20T04:06:00,sdl,6.91
2023-10-20T04:07:00,sdl,6.69
2023-10-20T04:08:00,sdl,5.98
2023-10-20T04:09:00,sdl,5.63
2023-10-20T04:10:00,sdl,5.94
2023-10-20T04:11:00,sdl,5.52
2023-10-20T04:12:00,sdl,5.48
2023-10-20T04:13:00,sdl,5.46
2023-10-20T04:14:00,sdl,5.50
2023-10-20T04:15:00,sdl,3.30
2023-10-20T04:16:00,sdl,3.31
2023-10-20T04:17:00,sdl,4.07
2023-10-20T04:18:00,sdl,3.37
2023-10-20T04:19:00,sdl,4.74
2023-10-20T04:20:00,sdl,4.85
2023-10-20T04:21:00,sdl,5.46
2023-10-20T04:22:00,sdl,5.40
2023-10-20T04:23:00,sdl,5.47
2023-10-20T04:24:00,sdl,5.35
2023-10-20T04:25:00,sdl,5.38
2023-10-20T04:26:00,sdl,5.34
2023-10-20T04:27:00,sdl,4.46
2023-10-20T04:28:00,sdl,3.17
2023-10-20T04:29:00,sdl,3.17
2023-10-20T04:30:00,sdl,3.19
2023-10-20T04:31:00,sdl,6.19
2023-10-20T04:32:00,sdl,5.95
2023-10-20T04:33:00,sdl,5.63
2023-10-20T04:34:00,sdl,5.45
2023-10-20T04:35:00,sdl,5.52
2023-10-20T04:36:00,sdl,5.44
2023-10-20T04:37:00,sdl,6.44
2023-10-20T04:38:00,sdl,6.78
2023-10-20T04:39:00,sdl,7.01
2023-10-20T04:40:00,sdl,7.56
2023-10-20T04:41:00,sdl,6.65
2023-10-20T04:42:00,sdl,6.63
2023-10-20T04:43:00,sdl,6.79
2023-10-20T04:44:00,sdl,6.74
2023-10-20T04:45:00,sdl,4.34
2023-10-20T04:46:00,sdl,3.31
2023-10-20T04:47:00,sdl,3.54
2023-10-20T04:48:00,sdl,3.44
2023-10-20T04:49:00,sdl,3.41
2023-10-20T04:50:00,sdl,3.44
2023-10-20T04:51:00,sdl,3.39
2023-10-20T04:52:00,sdl,3.35
2023-10-20T04:53:00,sdl,3.30
2023-10-20T04:54:00,sdl,3.31
2023-10-20T04:55:00,sdl,3.51
2023-10-20T04:56:00,sdl,3.49
2023-10-20T04:57:00,sdl,4.60
2023-10-20T04:58:00,sdl,4.39
2023-10-20T04:59:00,sdl,4.83
2023-10-20T05:00:00,sdl,4.80
2023-10-20T05:01:00,sdl,4.37
2023-10-20T05:02:00,sdl,4.47
2023-10-20T05:03:00,sdl,4.89
2023-10-20T05:04:00,sdl,3.42
2023-10-20T05:05:00,sdl,3.29
2023-10-20T05:06:00,sdl,3.27
2023-10-20T05:07:00,sdl,3.19
2023-10-20T05:08:00,sdl,3.41
2023-10-20T05:09:00,sdl,3.13
2023-10-20T05:10:00,sdl,3.16
2023-10-20T05:11:00,sdl,3.24
2023-10-20T05:12:00,sdl,3.24
2023-10-20T05:13:00,sdl,3.21
2023-10-20T05:14:00,sdl,3.24
2023-10-20T05:15:00,sdl,4.22
2023-10-20T05:16:00,sdl,4.39
2023-10-20T05:17:00,sdl,6.89
2023-10-20T05:18:00,sdl,7.33
2023-10-20T05:19:00,sdl,7.84
2023-10-20T05:20:00,sdl,7.87
2023-10-20T05:21:00,sdl,7.72
2023-10-20T05:22:00,sdl,7.72
2023-10-20T05:23:00,sdl,5.56
2023-10-20T05:24:00,sdl,5.95
2023-10-20T05:25:00,sdl,5.53
2023-10-20T05:26:00,sdl,5.57
2023-10-20T05:27:00,sdl,5.70
2023-10-20T05:28:00,sdl,5.71
2023-10-20T05:29:00,sdl,6.03
2023-10-20T05:30:00,sdl,6.03
2023-10-20T05:31:00,sdl,5.92
2023-10-20T05:32:00,sdl,6.60
2023-10-20T05:33:00,sdl,5.69
2023-10-20T05:34:00,sdl,4.65
2023-10-20T05:35:00,sdl,4.75
2023-10-20T05:36:00,sdl,5.45
2023-10-20T05:37:00,sdl,5.57
2023-10-20T05:38:00,sdl,4.85
2023-10-20T05:39:00,sdl,4.57
2023-10-20T05:40:00,sdl,4.50
2023-10-20T05:41:00,sdl,4.82
2023-10-20T05:42:00,sdl,4.87
2023-10-20T05:43:00,sdl,3.64
2023-10-20T05:44:00,sdl,3.64
2023-10-20T05:45:00,sdl,3.88
2023-10-20T05:46:00,sdl,3.67
2023-10-20T05:47:00,sdl,3.72
2023-10-20T05:48:00,sdl,3.74
2023-10-20T05:49:00,sdl,3.73
2023-10-20T05:50:00,sdl,3.74
2023-10-20T05:51:00,sdl,3.83
2023-10-20T05:52:00,sdl,3.98
2023-10-20T05:53:00,sdl,3.99
2023-10-20T05:54:00,sdl,4.96
2023-10-20T05:55:00,sdl,4.92
2023-10-20T05:56:00,sdl,4.87
2023-10-20T05:57:00,sdl,7.10
2023-10-20T05:58:00,sdl,7.46
2023-10-20T05:59:00,sdl,7.42
2023-10-20T06:00:00,sdl,7.03
2023-10-20T06:01:00,sdl,7.36
2023-10-20T06:02:00,sdl,6.01
2023-10-20T06:03:00,sdl,5.99
2023-10-20T06:04:00,sdl,5.99
2023-10-20T06:05:00,sdl,6.03
2023-10-20T06:06:00,sdl,6.01
2023-10-20T06:07:00,sdl,3.87
2023-10-20T06:08:00,sdl,3.90
2023-10-20T06:09:00,sdl,3.68
2023-10-20T06:10:00,sdl,3.75
2023-10-20T06:11:00,sdl,3.80
2023-10-20T06:12:00,sdl,3.71
2023-10-20T06:13:00,sdl,5.18
2023-10-20T06:14:00,sdl,4.92
2023-10-20T06:15:00,sdl,5.75
2023-10-20T06:16:00,sdl,5.95
2023-10-20T06:17:00,sdl,5.91
2023-10-20T06:18:00,sdl,5.92
2023-10-20T06:19:00,sdl,5.90
2023-10-20T06:20:00,sdl,5.90
2023-10-20T06:21:00,sdl,3.83
2023-10-20T06:22:00,sdl,3.84
2023-10-20T06:23:00,sdl,3.51
2023-10-20T06:24:00,sdl,3.51
2023-10-20T06:25:00,sdl,4.34
2023-10-20T06:26:00,sdl,3.72
2023-10-20T06:27:00,sdl,3.92
2023-10-20T06:28:00,sdl,6.14
2023-10-20T06:29:00,sdl,5.64
2023-10-20T06:30:00,sdl,5.63
2023-10-20T06:31:00,sdl,6.12
2023-10-20T06:32:00,sdl,7.65
2023-10-20T06:33:00,sdl,7.43
2023-10-20T06:34:00,sdl,7.81
2023-10-20T06:35:00,sdl,7.34
2023-10-20T06:36:00,sdl,6.96
2023-10-20T06:37:00,sdl,6.90
2023-10-20T06:38:00,sdl,7.17
2023-10-20T06:39:00,sdl,6.24
2023-10-20T06:40:00,sdl,5.86
2023-10-20T06:41:00,sdl,5.86
2023-10-20T06:42:00,sdl,5.88
2023-10-20T06:43:00,sdl,5.87
2023-10-20T06:44:00,sdl,5.84
2023-10-20T06:45:00,sdl,5.84
2023-10-20T06:46:00,sdl,3.87
2023-10-20T06:47:00,sdl,3.83
2023-10-20T06:48:00,sdl,3.82
2023-10-20T06:49:00,sdl,3.81
2023-10-20T06:50:00,sdl,4.05
2023-10-20T06:51:00,sdl,5.07
2023-10-20T06:52:00,sdl,4.81
2023-10-20T06:53:00,sdl,4.79
2023-10-20T06:54:00,sdl,4.80
2023-10-20T06:55:00,sdl,4.82
2023-10-20T06:56:00,sdl,4.83
2023-10-20T06:57:00,sdl,5.15
2023-10-20T06:58:00,sdl,3.78
2023-10-20T06:59:00,sdl,3.71
2023-10-20T07:00:00,sdl,3.83
2023-10-20T07:01:00,sdl,3.81
2023-10-20T07:02:00,sdl,3.85
2023-10-20T07:03:00,sdl,3.92
2023-10-20T07:04:00,sdl,4.00
2023-10-20T07:05:00,sdl,3.77
2023-10-20T07:06:00,sdl,3.85
2023-10-20T07:07:00,sdl,3.80
2023-10-20T07:08:00,sdl,3.76
2023-10-20T07:09:00,sdl,4.85
2023-10-20T07:10:00,sdl,4.81
2023-10-20T07:11:00,sdl,4.69
2023-10-20T07:12:00,sdl,5.26
2023-10-20T07:13:00,sdl,5.67
2023-10-20T07:14:00,sdl,5.72
2023-10-20T07:15:00,sdl,5.71
2023-10-20T07:16:00,sdl,5.79
2023-10-20T07:17:00,sdl,3.67
2023-10-20T07:18:00,sdl,3.79
2023-10-20T07:19:00,sdl,3.55
2023-10-20T07:20:00,sdl,3.90
2023-10-20T07:21:00,sdl,3.72
2023-10-20T07:22:00,sdl,3.69
2023-10-20T07:23:00,sdl,3.56
2023-10-20T07:24:00,sdl,6.07
2023-10-20T07:25:00,sdl,6.08
2023-10-20T07:26:00,sdl,6.07
2023-10-20T07:27:00,sdl,5.95
2023-10-20T07:28:00,sdl,7.06
2023-10-20T07:29:00,sdl,8.85
2023-10-20T07:30:00,sdl,9.58
2023-10-20T07:31:00,sdl,10.65
2023-10-20T07:32:00,sdl,11.83
2023-10-20T07:33:00,sdl,12.63
2023-10-20T07:34:00,sdl,11.96
2023-10-20T07:35:00,sdl,11.97
2023-10-20T07:36:00,sdl,10.59
2023-10-20T07:37:00,sdl,10.72
2023-10-20T07:38:00,sdl,10.71
2023-10-20T07:39:00,sdl,8.44
2023-10-20T07:40:00,sdl,8.73
2023-10-20T07:41:00,sdl,9.08
2023-10-20T07:42:00,sdl,8.61
2023-10-20T07:43:00,sdl,8.49
2023-10-20T07:44:00,sdl,8.51
2023-10-20T07:45:00,sdl,8.73
2023-10-20T07:46:00,sdl,8.58
2023-10-20T07:47:00,sdl,7.80
2023-10-20T07:48:00,sdl,9.24
2023-10-20T07:49:00,sdl,9.12
2023-10-20T07:50:00,sdl,9.22
2023-10-20T07:51:00,sdl,9.45
2023-10-20T07:52:00,sdl,9.63
2023-10-20T07:53:00,sdl,9.95
2023-10-20T07:54:00,sdl,11.71
2023-10-20T07:55:00,sdl,11.71
2023-10-20T07:56:00,sdl,10.15
2023-10-20T07:57:00,sdl,9.73
2023-10-20T07:58:00,sdl,9.96
2023-10-20T07:59:00,sdl,9.88
2023-10-20T08:00:00,sdl,9.81
2023-10-20T08:01:00,sdl,9.83
2023-10-20T08:02:00,sdl,9.94
2023-10-20T08:03:00,sdl,9.94
2023-10-20T08:04:00,sdl,9.88
2023-10-20T08:05:00,sdl,9.95
2023-10-20T08:06:00,sdl,9.94
2023-10-20T08:07:00,sdl,7.77
2023-10-20T08:08:00,sdl,9.01
2023-10-20T08:09:00,sdl,9.69
2023-10-20T08:10:00,sdl,10.63
2023-10-20T08:11:00,sdl,9.47
2023-10-20T08:12:00,sdl,9.38
2023-10-20T08:13:00,sdl,9.46
2023-10-20T08:14:00,sdl,9.52
2023-10-20T08:15:00,sdl,9.31
2023-10-20T08:16:00,sdl,7.82
2023-10-20T08:17:00,sdl,7.84
2023-10-20T08:18:00,sdl,8.08
2023-10-20T08:19:00,sdl,8.05
2023-10-20T08:20:00,sdl,8.29
2023-10-20T08:21:00,sdl,7.99
2023-10-20T08:22:00,sdl,8.48
2023-10-20T08:23:00,sdl,8.27
2023-10-20T08:24:00,sdl,7.87
2023-10-20T08:25:00,sdl,9.16
2023-10-20T08:26:00,sdl,9.53
2023-10-20T08:27:00,sdl,9.76
2023-10-20T08:28:00,sdl,10.26
2023-10-20T08:29:00,sdl,9.96
2023-10-20T08:30:00,sdl,9.99
2023-10-20T08:31:00,sdl,10.72
2023-10-20T08:32:00,sdl,10.74
2023-10-20T08:33:00,sdl,10.64
2023-10-20T08:34:00,sdl,11.73
2023-10-20T08:35:00,sdl,11.14
2023-10-20T08:36:00,sdl,9.71
2023-10-20T08:37:00,sdl,9.15
2023-10-20T08:38:00,sdl,9.16
2023-10-20T08:39:00,sdl,9.48
2023-10-20T08:40:00,sdl,11.63
2023-10-20T08:41:00,sdl,11.75
2023-10-20T08:42:00,sdl,11.63
2023-10-20T08:43:00,sdl,11.59
2023-10-20T08:44:00,sdl,11.51
2023-10-20T08:45:00,sdl,12.79
2023-10-20T08:46:00,sdl,12.24
2023-10-20T08:47:00,sdl,13.41
2023-10-20T08:48:00,sdl,13.72
2023-10-20T08:49:00,sdl,13.88
2023-10-20T08:50:00,sdl,14.16
2023-10-20T08:51:00,sdl,14.12
2023-10-20T08:52:00,sdl,13.90
2023-10-20T08:53:00,sdl,13.28
2023-10-20T08:54:00,sdl,12.46
2023-10-20T08:55:00,sdl,12.92
2023-10-20T08:56:00,sdl,11.36
2023-10-20T08:57:00,sdl,9.12
2023-10-20T08:58:00,sdl,8.59
2023-10-20T08:59:00,sdl,8.59
2023-10-20T09:00:00,sdl,8.55
2023-10-20T09:01:00,sdl,8.45
2023-10-20T09:02:00,sdl,8.45
2023-10-20T09:03:00,sdl,8.21
2023-10-20T09:04:00,sdl,8.53
2023-10-20T09:05:00,sdl,8.01
2023-10-20T09:06:00,sdl,7.94
2023-10-20T09:07:00,sdl,9.53
2023-10-20T09:08:00,sdl,9.98
2023-10-20T09:09:00,sdl,10.19
2023-10-20T09:10:00,sdl,9.43
2023-10-20T09:11:00,sdl,9.51
2023-10-20T09:12:00,sdl,10.70
2023-10-20T09:13:00,sdl,10.60
2023-10-20T09:14:00,sdl,10.65
2023-10-20T09:15:00,sdl,10.67
2023-10-20T09:16:00,sdl,11.31
2023-10-20T09:17:00,sdl,11.66
2023-10-20T09:18:00,sdl,11.46
2023-10-20T09:19:00,sdl,11.02
2023-10-20T09:20:00,sdl,11.27
2023-10-20T09:21:00,sdl,11.11
2023-10-20T09:22:00,sdl,11.13
2023-10-20T09:23:00,sdl,11.15
2023-10-20T09:24:00,sdl,11.15
2023-10-20T09:25:00,sdl,11.09
2023-10-20T09:26:00,sdl,10.13
2023-10-20T09:27:00,sdl,10.19
2023-10-20T09:28:00,sdl,10.34
2023-10-20T09:29:00,sdl,10.42
2023-10-20T09:30:00,sdl,10.50
2023-10-20T09:31:00,sdl,10.64
2023-10-20T09:32:00,sdl,10.62
2023-10-20T09:33:00,sdl,10.72
2023-10-20T09:34:00,sdl,10.83
2023-10-20T09:35:00,sdl,10.87
2023-10-20T09:36:00,sdl,9.04
2023-10-20T09:37:00,sdl,9.03
2023-10-20T09:38:00,sdl,8.95
2023-10-20T09:39:00,sdl,9.14
2023-10-20T09:40:00,sdl,9.51
2023-10-20T09:41:00,sdl,9.93
2023-10-20T09:42:00,sdl,9.84
2023-10-20T09:43:00,sdl,9.86
2023-10-20T09:44:00,sdl,9.02
2023-10-20T09:45:00,sdl,10.47
2023-10-20T09:46:00,sdl,11.28
2023-10-20T09:47:00,sdl,10.45
2023-10-20T09:48:00,sdl,10.74
2023-10-20T09:49:00,sdl,14.68
2023-10-20T09:50:00,sdl,13.23
2023-10-20T09:51:00,sdl,12.80
2023-10-20T09:52:00,sdl,12.95
2023-10-20T09:53:00,sdl,13.05
2023-10-20T09:54:00,sdl,12.73
2023-10-20T09:55:00,sdl,12.84
2023-10-20T09:56:00,sdl,12.91
2023-10-20T09:57:00,sdl,12.91
2023-10-20T09:58:00,sdl,12.92
2023-10-20T09:59:00,sdl,13.01
2023-10-20T10:00:00,sdl,12.97
2023-10-20T10:01:00,sdl,13.26
2023-10-20T10:02:00,sdl,10.42
2023-10-20T10:03:00,sdl,10.12
2023-10-20T10:04:00,sdl,8.02
2023-10-20T10:05:00,sdl,8.03
2023-10-20T10:06:00,sdl,8.02
2023-10-20T10:07:00,sdl,8.01
2023-10-20T10:08:00,sdl,6.98
2023-10-20T10:09:00,sdl,6.70
2023-10-20T10:10:00,sdl,8.65
2023-10-20T10:11:00,sdl,8.53
2023-10-20T10:12:00,sdl,8.42
2023-10-20T10:13:00,sdl,8.57
2023-10-20T10:14:00,sdl,7.26
2023-10-20T10:15:00,sdl,7.13
2023-10-20T10:16:00,sdl,8.35
2023-10-20T10:17:00,sdl,8.21
2023-10-20T10:18:00,sdl,7.90
2023-10-20T10:19:00,sdl,8.37
2023-10-20T10:20:00,sdl,8.31
2023-10-20T10:21:00,sdl,8.34
2023-10-20T10:22:00,sdl,8.47
2023-10-20T10:23:00,sdl,8.36
2023-10-20T10:24:00,sdl,8.31
2023-10-20T10:25:00,sdl,8.22
2023-10-20T10:26:00,sdl,8.26
2023-10-20T10:27:00,sdl,8.23
2023-10-20T10:28:00,sdl,8.43
2023-10-20T10:29:00,sdl,8.18
2023-10-20T10:30:00,sdl,7.53
2023-10-20T10:31:00,sdl,7.83
2023-10-20T10:32:00,sdl,8.58
2023-10-20T10:33:00,sdl,7.94
2023-10-20T10:34:00,sdl,12.30
2023-10-20T10:35:00,sdl,12.73
2023-10-20T10:36:00,sdl,12.44
2023-10-20T10:37:00,sdl,13.59
2023-10-20T10:38:00,sdl,14.64
2023-10-20T10:39:00,sdl,14.11
2023-10-20T10:40:00,sdl,15.38
2023-10-20T10:41:00,sdl,15.62
2023-10-20T10:42:00,sdl,15.45
2023-10-20T10:43:00,sdl,15.14
2023-10-20T10:44:00,sdl,16.02
2023-10-20T10:45:00,sdl,15.63
2023-10-20T10:46:00,sdl,15.30
2023-10-20T10:47:00,sdl,15.18
2023-10-20T10:48:00,sdl,14.30
2023-10-20T10:49:00,sdl,14.19
2023-10-20T10:50:00,sdl,14.25
2023-10-20T10:51:00,sdl,14.41
2023-10-20T10:52:00,sdl,14.42
2023-10-20T10:53:00,sdl,14.41
2023-10-20T10:54:00,sdl,15.47
2023-10-20T10:55:00,sdl,13.27
2023-10-20T10:56:00,sdl,13.74
2023-10-20T10:57:00,sdl,13.07
2023-10-20T10:58:00,sdl,13.10
2023-10-20T10:59:00,sdl,13.19
2023-10-20T11:00:00,sdl,13.73
2023-10-20T11:01:00,sdl,12.52
2023-10-20T11:02:00,sdl,12.53
2023-10-20T11:03:00,sdl,12.64
2023-10-20T11:04:00,sdl,12.03
2023-10-20T11:05:00,sdl,11.97
2023-10-20T11:06:00,sdl,10.94
2023-10-20T11:07:00,sdl,11.76
2023-10-20T11:08:00,sdl,11.04
2023-10-20T11:09:00,sdl,12.53
2023-10-20T11:10:00,sdl,12.57
2023-10-20T11:11:00,sdl,12.56
2023-10-20T11:12:00,sdl,12.98
2023-10-20T11:13:00,sdl,13.61
2023-10-20T11:14:00,sdl,13.89
2023-10-20T11:15:00,sdl,13.55
2023-10-20T11:16:00,sdl,13.52
2023-10-20T11:17:00,sdl,13.63
2023-10-20T11:18:00,sdl,13.52
2023-10-20T11:19:00,sdl,13.44
2023-10-20T11:20:00,sdl,14.09
2023-10-20T11:21:00,sdl,14.54
2023-10-20T11:22:00,sdl,13.19
2023-10-20T11:23:00,sdl,14.15
2023-10-20T11:24:00,sdl,11.52
2023-10-20T11:25:00,sdl,13.28
2023-10-20T11:26:00,sdl,13.76
2023-10-20T11:27:00,sdl,13.16
2023-10-20T11:28:00,sdl,12.76
2023-10-20T11:29:00,sdl,11.34
2023-10-20T11:30:00,sdl,12.99
2023-10-20T11:31:00,sdl,13.32
2023-10-20T11:32:00,sdl,12.08
2023-10-20T11:33:00,sdl,12.15
2023-10-20T11:34:00,sdl,13.04
2023-10-20T11:35:00,sdl,13.27
2023-10-20T11:36:00,sdl,12.43
2023-10-20T11:37:00,sdl,11.93
2023-10-20T11:38:00,sdl,11.87
2023-10-20T11:39:00,sdl,12.13
2023-10-20T11:40:00,sdl,10.94
2023-10-20T11:41:00,sdl,10.88
2023-10-20T11:42:00,sdl,10.82
2023-10-20T11:43:00,sdl,11.45
2023-10-20T11:44:00,sdl,10.79
2023-10-20T11:45:00,sdl,10.91
2023-10-20T11:46:00,sdl,10.92
2023-10-20T11:47:00,sdl,11.53
2023-10-20T11:48:00,sdl,11.84
2023-10-20T11:49:00,sdl,11.64
2023-10-20T11:50:00,sdl,14.00
2023-10-20T11:51:00,sdl,13.83
2023-10-20T11:52:00,sdl,13.89
2023-10-20T11:53:00,sdl,13.88
2023-10-20T11:54:00,sdl,13.92
2023-10-20T11:55:00,sdl,14.53
2023-10-20T11:56:00,sdl,12.84
2023-10-20T11:57:00,sdl,12.82
2023-10-20T11:58:00,sdl,12.89
2023-10-20T11:59:00,sdl,13.36
2023-10-20T12:00:00,sdl,13.30
2023-10-20T12:01:00,sdl,12.63
2023-10-20T12:02:00,sdl,12.60
2023-10-20T12:03:00,sdl,13.52
2023-10-20T12:04:00,sdl,12.78
2023-10-20T12:05:00,sdl,13.60
2023-10-20T12:06:00,sdl,13.79
2023-10-20T12:07:00,sdl,13.60
2023-10-20T12:08:00,sdl,13.74
2023-10-20T12:09:00,sdl,13.70
2023-10-20T12:10:00,sdl,13.79
2023-10-20T12:11:00,sdl,13.79
2023-10-20T12:12:00,sdl,14.90
2023-10-20T12:13:00,sdl,13.01
2023-10-20T12:14:00,sdl,13.04
2023-10-20T12:15:00,sdl,12.99
2023-10-20T12:16:00,sdl,12.90
2023-10-20T12:17:00,sdl,14.48
2023-10-20T12:18:00,sdl,14.43
2023-10-20T12:19:00,sdl,11.89
2023-10-20T12:20:00,sdl,12.37
2023-10-20T12:21:00,sdl,10.61
2023-10-20T12:22:00,sdl,10.47
2023-10-20T12:23:00,sdl,10.41
2023-10-20T12:24:00,sdl,12.11
2023-10-20T12:25:00,sdl,11.79
2023-10-20T12:26:00,sdl,11.72
2023-10-20T12:27:00,sdl,12.48
2023-10-20T12:28:00,sdl,11.84
2023-10-20T12:29:00,sdl,11.45
2023-10-20T12:30:00,sdl,11.46
2023-10-20T12:31:00,sdl,11.14
2023-10-20T12:32:00,sdl,10.79
2023-10-20T12:33:00,sdl,10.80
2023-10-20T12:34:00,sdl,10.58
2023-10-20T12:35:00,sdl,12.88
2023-10-20T12:36:00,sdl,13.07
2023-10-20T12:37:00,sdl,12.78
2023-10-20T12:38:00,sdl,13.13
2023-10-20T12:39:00,sdl,12.78
2023-10-20T12:40:00,sdl,12.70
2023-10-20T12:41:00,sdl,12.77
2023-10-20T12:42:00,sdl,13.52
2023-10-20T12:43:00,sdl,13.55
2023-10-20T12:44:00,sdl,13.77
2023-10-20T12:45:00,sdl,13.54
2023-10-20T12:46:00,sdl,13.48
2023-10-20T12:47:00,sdl,10.30
2023-10-20T12:48:00,sdl,10.51
2023-10-20T12:49:00,sdl,10.50
2023-10-20T12:50:00,sdl,10.58
2023-10-20T12:51:00,sdl,10.58
2023-10-20T12:52:00,sdl,10.52
2023-10-20T12:53:00,sdl,10.40
2023-10-20T12:54:00,sdl,10.43
2023-10-20T12:55:00,sdl,10.12
2023-10-20T12:56:00,sdl,10.36
2023-10-20T12:57:00,sdl,10.44
2023-10-20T12:58:00,sdl,11.12
2023-10-20T12:59:00,sdl,11.82
2023-10-20T13:00:00,sdl,13.54
2023-10-20T13:01:00,sdl,13.52
2023-10-20T13:02:00,sdl,13.40
2023-10-20T13:03:00,sdl,13.39
2023-10-20T13:04:00,sdl,13.44
2023-10-20T13:05:00,sdl,14.61
2023-10-20T13:06:00,sdl,12.50
2023-10-20T13:07:00,sdl,12.51
2023-10-20T13:08:00,sdl,12.51
2023-10-20T13:09:00,sdl,12.42
2023-10-20T13:10:00,sdl,12.50
2023-10-20T13:11:00,sdl,12.76
2023-10-20T13:12:00,sdl,12.53
2023-10-20T13:13:00,sdl,12.51
2023-10-20T13:14:00,sdl,12.59
2023-10-20T13:15:00,sdl,12.62
2023-10-20T13:16:00,sdl,12.53
2023-10-20T13:17:00,sdl,12.90
2023-10-20T13:18:00,sdl,13.54
2023-10-20T13:19:00,sdl,13.55
2023-10-20T13:20:00,sdl,13.64
2023-10-20T13:21:00,sdl,14.01
2023-10-20T13:22:00,sdl,13.99
2023-10-20T13:23:00,sdl,14.02
2023-10-20T13:24:00,sdl,14.05
2023-10-20T13:25:00,sdl,10.89
2023-10-20T13:26:00,sdl,10.69
2023-10-20T13:27:00,sdl,10.75
2023-10-20T13:28:00,sdl,10.67
2023-10-20T13:29:00,sdl,10.78
2023-10-20T13:30:00,sdl,10.67
2023-10-20T13:31:00,sdl,11.59
2023-10-20T13:32:00,sdl,10.70
2023-10-20T13:33:00,sdl,10.72
2023-10-20T13:34:00,sdl,10.74
2023-10-20T13:35:00,sdl,10.77
2023-10-20T13:36:00,sdl,10.78